FW3908 Weather Reports


time (UTC)temp
C
wind
direction
speed
KPH
gust
KPH
rain 1hr
cm
rain 24hr
cm
rain mn
cm
humidity
%
barometer
mb
20260906120922 18 67 0.0 0.0 0.00 0.00 0.00 98 1022.2
20260906115923 18 67 3.2 4.8 0.00 0.00 0.00 97 1022.1
20260906115824 18 67 0.0 4.8 0.00 0.00 0.00 97 1022.1
20260906114823 18 67 0.0 3.2 0.00 0.00 0.00 98 1021.9
20260906113824 18 22 1.6 4.8 0.00 0.00 0.00 97 1021.7
20260906113725 18 22 4.8 8.0 0.00 0.00 0.00 98 1021.6
20260906112723 18 67 0.0 1.6 0.00 0.03 0.00 97 1021.5
20260906111723 18 67 0.0 3.2 0.00 0.03 0.00 97 1021.4
20260906110723 18 67 0.0 3.2 0.00 0.03 0.00 97 1021.5
20260906105821 18 67 0.0 4.8 0.00 0.03 0.00 98 1021.4
20260906104826 18 65 1.6 6.4 0.00 0.03 0.00 97 1021.5
20260906103922 18 64 0.0 6.4 0.00 0.03 0.00 98 1021.4
20260906102922 18 42 3.2 6.4 0.00 0.03 0.00 97 1021.4
20260906101924 18 66 1.6 4.8 0.00 0.03 0.00 97 1021.0
20260906100923 18 22 1.6 3.2 0.00 0.03 0.00 98 1021.1
20260906100022 18 67 0.0 4.8 0.00 0.03 0.00 98 1021.0
20260906095023 18 67 3.2 4.8 0.00 0.03 0.00 98 1020.9
20260906094023 18 45 0.0 3.2 0.00 0.03 0.00 97 1021.0
20260906093922 18 45 1.6 4.8 0.00 0.03 0.00 98 1021.1
20260906092922 18 45 1.6 4.8 0.00 0.03 0.00 98 1020.9
20260906091923 18 45 0.0 0.0 0.00 0.03 0.00 98 1020.8
20260906090923 18 45 1.6 4.8 0.00 0.03 0.00 97 1020.9
20260906090824 18 45 1.6 4.8 0.00 0.03 0.00 97 1020.8
20260906085922 18 38 3.2 6.4 0.00 0.03 0.00 97 1020.8
20260906083923 18 60 1.6 3.2 0.00 0.03 0.00 97 1020.8
20260906082923 18 45 1.6 3.2 0.00 0.03 0.00 96 1020.8
20260906081923 18 22 3.2 4.8 0.00 0.03 0.00 97 1020.8
20260906080922 18 45 0.0 0.0 0.00 0.03 0.00 97 1021.0
20260906080021 18 45 0.0 3.2 0.00 0.03 0.00 97 1020.9
20260906075921 18 45 0.0 0.0 0.00 0.03 0.00 97 1020.7
20260906074923 18 22 3.2 4.8 0.00 0.03 0.00 97 1020.8
20260906073924 18 24 1.6 6.4 0.00 0.03 0.00 96 1020.8
20260906073822 18 45 0.0 4.8 0.00 0.03 0.00 95 1020.9
20260906072823 18 22 1.6 3.2 0.00 0.03 0.00 95 1020.8
20260906071822 18 67 0.0 0.0 0.00 0.03 0.00 95 1020.7
20260906070822 18 67 0.0 0.0 0.00 0.03 0.00 95 1020.8
20260906065824 18 22 0.0 6.4 0.00 0.03 0.00 95 1020.8
20260906064824 19 22 0.0 1.6 0.00 0.03 0.00 95 1020.8
20260906063822 19 45 1.6 4.8 0.00 0.03 0.00 94 1020.9
20260906063722 19 45 0.0 3.2 0.00 0.03 0.00 95 1020.8
20260906063621 19 44 3.2 4.8 0.00 0.03 0.00 95 1021.0
20260906060621 20 67 0.0 3.2 0.00 0.03 0.00 93 1020.9
20260906055623 20 61 1.6 6.4 0.00 0.03 0.00 94 1020.9
20260906055521 20 67 3.2 4.8 0.00 0.03 0.00 94 1021.0
20260906055422 20 67 1.6 4.8 0.00 0.03 0.00 94 1021.0
20260906055322 20 67 3.2 4.8 0.00 0.03 0.00 94 1021.0
20260906054322 20 42 3.2 8.0 0.00 0.03 0.00 94 1021.0
20260906053323 20 67 0.0 0.0 0.00 0.03 0.00 94 1021.0
20260906052222 20 52 0.0 6.4 0.00 0.03 0.00 94 1020.7
20260906051223 20 74 3.2 8.0 0.00 0.03 0.00 94 1020.8
20260906050223 20 59 3.2 11.3 0.00 0.03 0.00 94 1020.6
20260906045230 20 56 6.4 11.3 0.00 0.03 0.03 94 1020.6
20260906045128 20 84 9.7 16.1 0.00 0.03 0.03 94 1020.6
20260906044130 20 50 3.2 9.7 0.00 0.03 0.03 94 1020.5
20260906044029 20 66 6.4 11.3 0.00 0.03 0.03 93 1020.5
20260906043030 20 67 0.0 1.6 0.00 0.03 0.03 93 1020.4
20260906042030 20 71 1.6 6.4 0.00 0.03 0.03 93 1020.3
20260906041128 20 67 3.2 8.0 0.00 0.03 0.03 94 1020.2
20260906040131 20 52 4.8 11.3 0.00 0.03 0.03 93 1020.1
20260906035229 20 105 6.4 14.5 0.00 0.03 0.03 92 1019.9
20260906034229 20 94 6.4 11.3 0.00 0.03 0.03 92 1019.9
20260906033329 20 69 4.8 11.3 0.00 0.03 0.03 92 1019.9
20260906032330 20 64 6.4 11.3 0.00 0.03 0.03 92 1019.8
20260906030428 20 76 9.7 12.9 0.00 0.03 0.03 90 1019.6
20260906030330 20 72 11.3 16.1 0.00 0.03 0.03 91 1019.7
20260906024331 21 62 9.7 14.5 0.00 0.03 0.03 89 1019.7
20260906022431 21 49 4.8 8.0 0.00 0.36 0.03 89 1019.4
20260906021528 21 59 4.8 6.4 0.00 0.41 0.03 90 1019.4
20260906020528 21 68 9.7 17.7 0.00 0.41 0.03 89 1019.6
20260906015528 21 94 4.8 11.3 0.00 0.41 0.03 90 1019.6
20260906014528 21 89 4.8 11.3 0.00 0.41 0.03 89 1019.7
20260906013529 21 66 3.2 8.0 0.00 0.41 0.03 90 1019.7
20260906013430 21 62 4.8 11.3 0.00 0.41 0.03 90 1019.6
20260906012429 21 65 6.4 14.5 0.00 0.41 0.03 88 1019.6
20260906011528 21 74 4.8 11.3 0.00 0.41 0.03 88 1019.5
20260906010529 21 57 4.8 11.3 0.00 0.41 0.03 89 1019.7
20260906005530 21 35 3.2 8.0 0.00 0.41 0.03 88 1019.6
20260906005430 21 48 3.2 8.0 0.00 0.41 0.03 87 1019.7
20260906004528 21 67 3.2 9.7 0.00 0.41 0.03 87 1019.4
20260906003529 21 74 3.2 9.7 0.00 0.41 0.03 87 1019.3
20260906003431 21 88 4.8 6.4 0.00 0.41 0.03 88 1019.4
20260906002429 21 81 14.5 20.9 0.00 0.41 0.03 88 1019.3
20260906001428 21 69 6.4 12.9 0.00 0.41 0.03 86 1019.4
20260906001330 21 69 6.4 11.3 0.00 0.41 0.03 87 1019.3
20260905234329 22 80 9.7 16.1 0.00 0.41 0.03 84 1019.0
20260905233329 23 76 9.7 16.1 0.00 0.41 0.03 82 1019.0
20260905233231 23 73 8.0 14.5 0.00 0.41 0.03 83 1018.9
20260905232229 23 73 11.3 24.1 0.00 0.41 0.03 81 1018.8
20260905231229 23 74 9.7 17.7 0.00 0.41 0.03 79 1018.8
20260905231131 23 63 11.3 16.1 0.00 0.41 0.03 80 1018.8
20260905230130 24 76 4.8 11.3 0.00 0.41 0.03 78 1018.4
20260905224129 25 56 8.0 12.9 0.00 0.41 0.03 77 1018.2
20260905223129 25 65 6.4 9.7 0.00 0.41 0.03 77 1018.1
20260905222128 26 81 16.1 24.1 0.00 0.41 0.03 76 1018.1
20260905220228 26 65 9.7 16.1 0.00 0.41 0.03 77 1018.1
20260905215228 26 76 12.9 17.7 0.00 0.41 0.03 75 1018.1
20260905213229 27 78 3.2 9.7 0.00 0.41 0.03 71 1017.7
20260905212228 27 60 4.8 8.0 0.00 0.41 0.03 70 1017.7
20260905210228 27 37 4.8 9.7 0.00 0.41 0.03 68 1017.7
20260905205231 27 67 6.4 9.7 0.00 0.41 0.03 69 1017.7
20260905204231 27 22 3.2 6.4 0.00 0.41 0.03 71 1017.9
20260905203229 27 49 9.7 14.5 0.00 0.41 0.03 73 1018.0
20260905202228 26 49 3.2 6.4 0.00 0.41 0.03 75 1017.9
20260905201229 26 59 8.0 12.9 0.00 0.41 0.03 75 1017.9
20260905195231 25 64 4.8 8.0 0.00 0.41 0.03 80 1018.2
20260905192228 25 49 1.6 4.8 0.00 0.41 0.03 84 1018.4
20260905190329 24 86 1.6 3.2 0.00 0.41 0.03 85 1018.7
20260905185428 24 37 6.4 11.3 0.00 0.41 0.03 86 1018.7
20260905184431 23 76 1.6 6.4 0.00 0.41 0.03 87 1018.7
20260905183429 23 45 6.4 8.0 0.00 0.41 0.03 87 1018.8
20260905182428 23 80 6.4 9.7 0.00 0.41 0.03 88 1018.8
20260905181429 23 69 3.2 4.8 0.00 0.41 0.03 87 1018.8
20260905180437 23 36 8.0 16.1 0.00 0.41 0.03 87 1018.7
20260905175529 23 32 3.2 9.7 0.00 0.41 0.03 87 1018.8
20260905172528 23 33 1.6 6.4 0.00 0.41 0.03 86 1018.6
20260905172429 23 18 3.2 6.4 0.00 0.41 0.03 86 1018.7
20260905171429 23 58 3.2 8.0 0.00 0.41 0.03 87 1018.7
20260905170429 23 54 6.4 16.1 0.00 0.41 0.03 87 1018.8
20260905165428 24 11 0.0 6.4 0.00 0.41 0.03 87 1018.8
20260905164528 24 38 9.7 16.1 0.00 0.51 0.03 87 1018.9
20260905162529 24 26 6.4 11.3 0.00 0.71 0.03 87 1018.7
20260905162427 24 19 8.0 12.9 0.00 0.71 0.03 88 1018.7
20260905161430 24 60 1.6 6.4 0.00 0.71 0.03 88 1018.7
20260905160428 24 22 0.0 1.6 0.00 0.71 0.03 89 1018.8
20260905155429 24 71 6.4 11.3 0.00 0.71 0.03 90 1018.7
20260905154429 24 65 8.0 12.9 0.00 0.71 0.03 91 1018.5
20260905153431 23 75 6.4 11.3 0.00 0.71 0.03 93 1018.4
20260905152429 23 58 3.2 8.0 0.00 0.71 0.03 94 1018.2
20260905144428 22 61 6.4 11.3 0.00 0.71 0.03 97 1018.1
20260905142527 22 67 3.2 9.7 0.00 0.71 0.03 98 1018.0
20260905141529 22 67 1.6 11.3 0.00 0.71 0.03 98 1018.1
20260905140531 22 67 1.6 4.8 0.00 0.71 0.03 98 1018.0
20260905135530 22 73 4.8 12.9 0.00 0.71 0.03 98 1017.9
20260905133529 22 49 4.8 11.3 0.00 0.71 0.03 98 1017.9
20260905133428 22 43 4.8 9.7 0.00 0.71 0.03 99 1017.9
20260905131430 21 67 1.6 6.4 0.00 0.71 0.03 98 1018.2
20260905130430 21 45 1.6 4.8 0.00 0.71 0.03 97 1018.1
20260905125429 21 73 4.8 9.7 0.00 0.71 0.03 97 1017.7
20260905125330 21 87 4.8 8.0 0.00 0.71 0.03 97 1017.8
20260905124330 21 67 4.8 11.3 0.00 0.71 0.03 97 1017.7
20260905123331 21 68 6.4 12.9 0.00 0.71 0.03 97 1017.5
20260905123230 21 74 6.4 11.3 0.00 0.71 0.03 98 1017.5
20260905122227 21 74 6.4 11.3 0.03 0.71 0.03 98 1017.2